Torna al catalogo

YUNYAO-1 15

AttivoMeteoPO
NORAD 60745·PAYLOAD·🇨🇳 China
Questo nome del satellite non è ancora stato confermato da fonti ufficiali.

Lanciato Aug 29, 2024 da Yellow Sea Launch Area

Loading…

Prossimi Passaggi (prossime 24 ore)

TLE

AggiornatoSource: Space-Track

Epoca: Sep 14, 2026, 15:41 UTC

1 60745U 24153A   26257.65384247  .00079376  00000-0  11049-2 0  9997
2 60745  97.6838  45.5053 0004688 166.6257 193.5122 15.56678740113980

Traccia YUNYAO-1 15 in tempo reale con AllMySat

Download on the App Store